Location: Grums
(59.3529°N, 13.1129°E)
Time: 19:44:56
(UTC+02:00)

Nauka - Pass Details

Date: 25 September 2021
Orbit: 417 x 423 km, 51.6° (Epoch: 17 October)

Event Time Altitude Azimuth Distance (km) Brightness Sun altitude
Rises 21:43:05 0° 260° (W) 2,367 ? -20.6°
Reaches altitude 10° 21:45:37 10° 241° (WSW) 1,503 ? -20.9°
Enters shadow 21:46:51 16° 221° (SW) 1,210 ? -21.0°
